{"data":{"norad_id":56885,"intl_designator":"2023-083K","name":"STARLINK-5095","alt_names":[],"object_type":"PAYLOAD","status":"ACTIVE","operator":null,"country":"US","launch_date":"2023-06-12","launch_site_code":"AFETR","launch_vehicle":null,"mission":null,"orbit_class":"UNKNOWN","rcs_meters":null,"size_class":null,"mass_kg":null,"dimensions":null,"purposes":["comms"],"wikipedia_slug":null,"has_3d_model":false,"image_url":null,"decayed_at":null,"tle_current":{"epoch":"2026-05-25T00:07:05.061216Z","epoch_age_seconds":81824,"freshness":"FRESH","line1":"1 56885U 23083K   26145.00491969  .00033252  00000+0  12184-2 0  9996","line2":"2 56885  43.0015  14.0509 0001265 251.5067 108.5647 15.27419505163309","mean_motion":15.27419505,"eccentricity":0.0001265,"inclination_deg":43.0015,"raan_deg":14.0509,"arg_perigee_deg":251.5067,"mean_anomaly_deg":108.5647,"bstar":0.0012184,"rev_number":16330,"period_min":94.276653878399,"perigee_km":482.66171704825,"apogee_km":484.39771872788,"semimajor_km":6861.6667178881,"source":"CELESTRAK","updated_at":"2026-05-25T13:38:18.168552Z"}}}